Weather History for Bentonville, AR

Change the Weather History Date:

Monday, January 13, 2014

  Actual Average Record
Temperature  
Mean Temperature 47 °F -  
Max Temperature 57 °F 42 °F 70 °F (1952)
Min Temperature 37 °F 19 °F -3 °F (1963)
Degree Days  
Heating Degree Days 18    
Moisture  
Dew Point 30 °F    
Average Humidity 54    
Maximum Humidity 75    
Minimum Humidity 35    
Precipitation  
Precipitation 0.00 in - - ()
Sea Level Pressure  
Sea Level Pressure 29.85 in    
Wind  
Wind Speed 11 mph (West)    
Max Wind Speed 17 mph    
Max Gust Speed 26 mph    
Visibility 10 miles    
Events      
Averages and records for this station are not official NWS values.
T = Trace of Precipitation, MM = Missing Value Source: NWS Daily Summary

Daily Weather History Graph

Daily Weather History Graph

Search for Another Location

Airport:

Trip Planner

Search our weather history database for the weather conditions in past years. The results will help you decide how hot, cold, wet, or windy it might be!

Date:

Astronomy

Jan. 13, 2014 Rise Set
Actual Time 7:28 AM CST 5:23 PM CST
Civil Twilight 6:59 AM CST 5:51 PM CST
Nautical Twilight 6:28 AM CST 6:23 PM CST
Astronomical Twilight 5:57 AM CST 6:54 PM CST
Moon 3:38 PM CST (1/13) 5:17 AM CST (1/13)
Length of Visible Light 10h 51m
Length of Day
9h 55m
Waxing Gibbous, 95% of the Moon is Illuminated
Jan 13
Waxing Gibbous
Jan 15
Full
Jan 23
Last Quarter
Jan 30
New
Feb 6
First Quarter

Hourly Weather History & Observations

Time (CST) Temp. Windchill Dew Point Humidity Pressure Visibility Wind Dir Wind Speed Gust Speed Precip Events Conditions
12:15 AM 57.2 °F - 35.6 °F 44% 29.67 in 10.0 mi SSW 17.3 mph 24.2 mph N/A   Clear
12:35 AM 55.4 °F - 37.4 °F 51% 29.66 in 10.0 mi SSW 17.3 mph 23.0 mph N/A   Clear
12:55 AM 57.2 °F - 37.4 °F 48% 29.67 in 10.0 mi SSW 15.0 mph 23.0 mph N/A   Clear
1:15 AM 57.2 °F - 39.2 °F 51% 29.68 in 10.0 mi SSW 16.1 mph 26.5 mph N/A   Clear
1:35 AM 55.4 °F - 39.2 °F 54% 29.68 in 10.0 mi SSW 17.3 mph 25.3 mph N/A   Clear
1:55 AM 55.4 °F - 41.0 °F 58% 29.69 in 10.0 mi SW 17.3 mph 24.2 mph N/A   Mostly Cloudy
2:15 AM 55.4 °F - 41.0 °F 58% 29.70 in 10.0 mi SW 16.1 mph 21.9 mph N/A   Mostly Cloudy
2:35 AM 55.4 °F - 42.8 °F 63% 29.70 in 10.0 mi SW 15.0 mph 21.9 mph N/A   Overcast
2:55 AM 55.4 °F - 42.8 °F 63% 29.71 in 10.0 mi WSW 16.1 mph 21.9 mph N/A   Overcast
3:15 AM 55.4 °F - 44.6 °F 67% 29.71 in 10.0 mi WSW 12.7 mph 23.0 mph N/A   Overcast
3:35 AM 51.8 °F - 37.4 °F 58% 29.72 in 10.0 mi West 9.2 mph - N/A   Overcast
3:55 AM 50.0 °F - 35.6 °F 58% 29.73 in 10.0 mi West 12.7 mph 17.3 mph N/A   Mostly Cloudy
4:15 AM 46.4 °F 41.1 °F 32.0 °F 57% 29.73 in 10.0 mi NW 11.5 mph - N/A   Scattered Clouds
4:35 AM 44.6 °F 38.8 °F 30.2 °F 57% 29.74 in 10.0 mi NW 11.5 mph - N/A   Partly Cloudy
4:55 AM 44.6 °F 39.7 °F 30.2 °F 57% 29.74 in 10.0 mi NW 9.2 mph - N/A   Clear
5:15 AM 42.8 °F 38.0 °F 30.2 °F 61% 29.75 in 10.0 mi NW 8.1 mph - N/A   Clear
5:35 AM 42.8 °F 38.0 °F 30.2 °F 61% 29.77 in 10.0 mi NW 8.1 mph - N/A   Clear
5:55 AM 41.0 °F 35.2 °F 30.2 °F 65% 29.78 in 10.0 mi NW 9.2 mph - N/A   Clear
6:15 AM 39.2 °F 35.9 °F 30.2 °F 70% 29.78 in 10.0 mi NW 4.6 mph - N/A   Clear
6:35 AM 39.2 °F 35.9 °F 30.2 °F 70% 29.79 in 10.0 mi NW 4.6 mph - N/A   Clear
6:55 AM 39.2 °F 35.9 °F 30.2 °F 70% 29.80 in 10.0 mi WNW 4.6 mph - N/A   Clear
7:15 AM 37.4 °F 34.9 °F 30.2 °F 75% 29.81 in 10.0 mi NW 3.5 mph - N/A   Clear
7:35 AM 37.4 °F 34.9 °F 28.4 °F 70% 29.83 in 10.0 mi WNW 3.5 mph - N/A   Clear
7:55 AM 37.4 °F 32.8 °F 28.4 °F 70% 29.83 in 10.0 mi WNW 5.8 mph - N/A   Clear
8:15 AM 37.4 °F 33.8 °F 30.2 °F 75% 29.85 in 10.0 mi NW 4.6 mph - N/A   Clear
8:35 AM 39.2 °F 35.0 °F 30.2 °F 70% 29.87 in 10.0 mi NW 5.8 mph - N/A   Clear
8:55 AM 41.0 °F 36.4 °F 30.2 °F 65% 29.88 in 10.0 mi NW 6.9 mph - N/A   Clear
9:15 AM 42.8 °F 38.6 °F 32.0 °F 66% 29.89 in 10.0 mi NW 6.9 mph - N/A   Clear
9:35 AM 44.6 °F 40.7 °F 32.0 °F 61% 29.90 in 10.0 mi NW 6.9 mph - N/A   Clear
9:55 AM 44.6 °F 40.2 °F 33.8 °F 66% 29.91 in 10.0 mi NW 8.1 mph - N/A   Clear
10:15 AM 44.6 °F 41.4 °F 33.8 °F 66% 29.91 in 10.0 mi WNW 5.8 mph - N/A   Clear
10:35 AM 46.4 °F 42.9 °F 33.8 °F 62% 29.91 in 10.0 mi NW 6.9 mph - N/A   Clear
10:55 AM 48.2 °F - 33.8 °F 58% 29.91 in 10.0 mi NW 5.8 mph - N/A   Clear
11:15 AM 48.2 °F - 33.8 °F 58% 29.91 in 10.0 mi WNW 6.9 mph - N/A   Clear
11:35 AM 50.0 °F - 33.8 °F 54% 29.90 in 10.0 mi North 8.1 mph - N/A   Clear
11:55 AM 51.8 °F - 33.8 °F 50% 29.90 in 10.0 mi NW 5.8 mph - N/A   Clear
12:15 PM 51.8 °F - 33.8 °F 50% 29.88 in 10.0 mi WNW 10.4 mph 16.1 mph N/A   Clear
12:35 PM 51.8 °F - 33.8 °F 50% 29.88 in 10.0 mi WNW 10.4 mph - N/A   Clear
12:55 PM 53.6 °F - 33.8 °F 47% 29.87 in 10.0 mi WNW 10.4 mph 19.6 mph N/A   Partly Cloudy
1:15 PM 53.6 °F - 33.8 °F 47% 29.87 in 10.0 mi NW 12.7 mph - N/A   Clear
1:35 PM 53.6 °F - 33.8 °F 47% 29.86 in 10.0 mi NW 13.8 mph 18.4 mph N/A   Clear
1:55 PM 53.6 °F - 30.2 °F 41% 29.87 in 10.0 mi NW 12.7 mph 20.7 mph N/A   Clear
2:15 PM 53.6 °F - 30.2 °F 41% 29.87 in 10.0 mi WNW 12.7 mph 19.6 mph N/A   Clear
2:35 PM 53.6 °F - 26.6 °F 35% 29.88 in 10.0 mi NW 16.1 mph 19.6 mph N/A   Clear
2:55 PM 53.6 °F - 26.6 °F 35% 29.89 in 10.0 mi WNW 17.3 mph 21.9 mph N/A   Clear
3:15 PM 53.6 °F - 28.4 °F 38% 29.89 in 10.0 mi West 12.7 mph 17.3 mph N/A   Clear
3:35 PM 51.8 °F - 28.4 °F 41% 29.90 in 10.0 mi WNW 15.0 mph 19.6 mph N/A   Clear
3:55 PM 51.8 °F - 26.6 °F 38% 29.90 in 10.0 mi WNW 13.8 mph 19.6 mph N/A   Clear
4:15 PM 51.8 °F - 26.6 °F 38% 29.90 in 10.0 mi WNW 12.7 mph - N/A   Clear
4:35 PM 51.8 °F - 24.8 °F 35% 29.91 in 10.0 mi NW 10.4 mph - N/A   Clear
4:55 PM 50.0 °F - 24.8 °F 37% 29.91 in 10.0 mi WNW 6.9 mph - N/A   Clear
5:15 PM 48.2 °F - 24.8 °F 40% 29.91 in 10.0 mi WNW 5.8 mph - N/A   Clear
5:35 PM 46.4 °F 45.2 °F 24.8 °F 43% 29.91 in 10.0 mi WNW 3.5 mph - N/A   Clear
5:55 PM 44.6 °F 43.1 °F 26.6 °F 49% 29.91 in 10.0 mi West 3.5 mph - N/A   Clear
6:15 PM 44.6 °F - 24.8 °F 46% 29.92 in 10.0 mi Calm Calm - N/A   Clear
6:35 PM 42.8 °F 41.1 °F 24.8 °F 49% 29.92 in 10.0 mi WSW 3.5 mph - N/A   Clear
6:55 PM 42.8 °F 41.1 °F 24.8 °F 49% 29.92 in 10.0 mi SW 3.5 mph - N/A   Clear
7:15 PM 42.8 °F 40.1 °F 24.8 °F 49% 29.93 in 10.0 mi SW 4.6 mph - N/A   Clear
7:35 PM 42.8 °F 39.3 °F 24.8 °F 49% 29.93 in 10.0 mi SW 5.8 mph - N/A   Clear
7:55 PM 42.8 °F 39.3 °F 24.8 °F 49% 29.93 in 10.0 mi SW 5.8 mph - N/A   Clear
8:15 PM 42.8 °F 39.3 °F 24.8 °F 49% 29.93 in 10.0 mi SW 5.8 mph - N/A   Clear
8:35 PM 42.8 °F 39.3 °F 24.8 °F 49% 29.93 in 10.0 mi SW 5.8 mph - N/A   Clear
8:55 PM 41.0 °F 37.1 °F 24.8 °F 53% 29.93 in 10.0 mi SW 5.8 mph - N/A   Clear
9:15 PM 39.2 °F 35.9 °F 24.8 °F 56% 29.93 in 10.0 mi SW 4.6 mph - N/A   Clear
9:35 PM 41.0 °F 38.0 °F 24.8 °F 53% 29.93 in 10.0 mi SW 4.6 mph - N/A   Clear
9:55 PM 39.2 °F 35.9 °F 24.8 °F 56% 29.94 in 10.0 mi SW 4.6 mph - N/A   Clear
10:15 PM 39.2 °F 35.9 °F 24.8 °F 56% 29.93 in 10.0 mi SSW 4.6 mph - N/A   Clear
10:35 PM 39.2 °F 35.9 °F 24.8 °F 56% 29.93 in 10.0 mi SSW 4.6 mph - N/A   Clear
10:55 PM 37.4 °F 32.8 °F 24.8 °F 60% 29.93 in 10.0 mi SSW 5.8 mph - N/A   Clear
11:15 PM 37.4 °F 32.8 °F 24.8 °F 60% 29.93 in 10.0 mi SW 5.8 mph - N/A   Clear
11:35 PM 37.4 °F 32.8 °F 24.8 °F 60% 29.92 in 10.0 mi SSW 5.8 mph - N/A   Clear
11:55 PM 37.4 °F 32.8 °F 24.8 °F 60% 29.92 in 10.0 mi SSW 5.8 mph - N/A   Clear